APD YPAD-YMML

Flight info

Callsign APD
Flight time 1h 17m
Altitude 21000
Route AD V255 BENDO Y12 ARBEY H119 ML
Aircraft B350/L-SBGRW/S

Departure

Time 2026-05-05 06:27
Airport Adelaide International Airport (YPAD)

Arrival

Time 2026-05-05 07:44
Airport Melbourne Airport (YMML)
Time Latitude Longitude Altitude Speed Heading
2026-05-05 06:01 -34.93921 138.53179 22 ft 0 kts 229°
2026-05-05 06:20 -34.93929 138.53161 23 ft 5 kts 266°
2026-05-05 06:21 -34.93891 138.53116 22 ft 10 kts 320°
2026-05-05 06:21 -34.93873 138.53050 22 ft 9 kts 232°
2026-05-05 06:21 -34.93913 138.52992 22 ft 9 kts 229°
2026-05-05 06:21 -34.93964 138.52957 22 ft 9 kts 191°
2026-05-05 06:22 -34.94029 138.52943 23 ft 12 kts 189°
2026-05-05 06:22 -34.94125 138.52924 24 ft 15 kts 178°
2026-05-05 06:22 -34.94233 138.52928 22 ft 16 kts 190°
2026-05-05 06:22 -34.94335 138.52927 22 ft 14 kts 153°
2026-05-05 06:23 -34.94403 138.53018 22 ft 15 kts 123°
2026-05-05 06:23 -34.94460 138.53123 22 ft 15 kts 123°
2026-05-05 06:23 -34.94517 138.53236 22 ft 18 kts 108°
2026-05-05 06:23 -34.94475 138.53385 24 ft 20 kts 45°
2026-05-05 06:24 -34.94387 138.53516 24 ft 20 kts 49°
2026-05-05 06:24 -34.94295 138.53645 22 ft 20 kts 50°
2026-05-05 06:24 -34.94207 138.53775 22 ft 20 kts 51°
2026-05-05 06:24 -34.94122 138.53901 22 ft 19 kts 49°
2026-05-05 06:25 -34.94036 138.54027 22 ft 19 kts 50°
2026-05-05 06:25 -34.93955 138.54147 23 ft 12 kts 54°
2026-05-05 06:25 -34.93981 138.54226 22 ft 12 kts 141°
2026-05-05 06:25 -34.94047 138.54280 22 ft 11 kts 167°
2026-05-05 06:26 -34.94116 138.54251 22 ft 13 kts 231°
2026-05-05 06:26 -34.94246 138.54061 22 ft 64 kts 230°
2026-05-05 06:26 -34.94699 138.53397 51 ft 128 kts 231°
2026-05-05 06:26 -34.95340 138.52458 366 ft 156 kts 229°
2026-05-05 06:27 -34.96102 138.51441 905 ft 170 kts 219°
2026-05-05 06:27 -34.98353 138.51010 2297 ft 175 kts 170°
2026-05-05 06:27 -34.99629 138.51368 2616 ft 194 kts 169°
2026-05-05 06:28 -35.00941 138.51762 3206 ft 195 kts 168°
2026-05-05 06:28 -35.02243 138.52177 3901 ft 190 kts 167°
2026-05-05 06:28 -35.03492 138.52653 4629 ft 188 kts 154°
2026-05-05 06:28 -35.04417 138.53745 5358 ft 188 kts 120°
2026-05-05 06:29 -35.04712 138.55263 6078 ft 188 kts 92°
2026-05-05 06:29 -35.04814 138.56835 6794 ft 185 kts 103°
2026-05-05 06:29 -35.05119 138.58354 7479 ft 182 kts 107°
2026-05-05 06:29 -35.05447 138.59841 8090 ft 182 kts 107°
2026-05-05 06:30 -35.05771 138.61360 8615 ft 189 kts 106°
2026-05-05 06:30 -35.06104 138.62947 9101 ft 197 kts 106°
2026-05-05 06:30 -35.06449 138.64592 9590 ft 203 kts 106°
2026-05-05 06:30 -35.06807 138.66284 10088 ft 208 kts 106°
2026-05-05 06:31 -35.07172 138.68012 10549 ft 212 kts 105°
2026-05-05 06:31 -35.07541 138.69763 11007 ft 214 kts 105°
2026-05-05 06:31 -35.07915 138.71533 11465 ft 217 kts 106°
2026-05-05 06:31 -35.08289 138.73322 11941 ft 218 kts 105°
2026-05-05 06:32 -35.08666 138.75120 12415 ft 219 kts 106°
2026-05-05 06:32 -35.09047 138.76931 12899 ft 221 kts 106°
2026-05-05 06:32 -35.09429 138.78746 13387 ft 221 kts 106°
2026-05-05 06:32 -35.09806 138.80551 13886 ft 222 kts 106°
2026-05-05 06:33 -35.10191 138.82386 14352 ft 223 kts 105°
2026-05-05 06:33 -35.10573 138.84219 14801 ft 223 kts 106°
2026-05-05 06:33 -35.10958 138.86054 15255 ft 223 kts 105°
2026-05-05 06:33 -35.11344 138.87898 15716 ft 226 kts 105°
2026-05-05 06:34 -35.11732 138.89784 16190 ft 230 kts 105°
2026-05-05 06:34 -35.12130 138.91691 16669 ft 233 kts 105°
2026-05-05 06:34 -35.12534 138.93614 17156 ft 234 kts 105°
2026-05-05 06:34 -35.12936 138.95547 17649 ft 235 kts 105°
2026-05-05 06:35 -35.13339 138.97491 18147 ft 236 kts 105°
2026-05-05 06:35 -35.13744 138.99432 18644 ft 236 kts 105°
2026-05-05 06:35 -35.14143 139.01354 19077 ft 236 kts 104°
2026-05-05 06:35 -35.14545 139.03300 19525 ft 236 kts 105°
2026-05-05 06:36 -35.14948 139.05242 19977 ft 236 kts 105°
2026-05-05 06:36 -35.15351 139.07181 20434 ft 235 kts 104°
2026-05-05 06:36 -35.15751 139.09115 20899 ft 235 kts 104°
2026-05-05 06:36 -35.16152 139.11056 21247 ft 241 kts 104°
2026-05-05 06:37 -35.16580 139.13118 21254 ft 260 kts 104°
2026-05-05 06:37 -35.17040 139.15332 21263 ft 276 kts 104°
2026-05-05 06:37 -35.17521 139.17665 21265 ft 289 kts 104°
2026-05-05 06:37 -35.18018 139.20083 21264 ft 298 kts 104°
2026-05-05 06:38 -35.18530 139.22572 21266 ft 304 kts 104°
2026-05-05 06:38 -35.19051 139.25103 21268 ft 309 kts 104°
2026-05-05 06:38 -35.19578 139.27672 21266 ft 313 kts 104°
2026-05-05 06:38 -35.20111 139.30267 21260 ft 315 kts 104°
2026-05-05 06:39 -35.20645 139.32880 21262 ft 317 kts 104°
2026-05-05 06:39 -35.21182 139.35501 21262 ft 318 kts 104°
2026-05-05 06:39 -35.21721 139.38136 21263 ft 319 kts 104°
2026-05-05 06:39 -35.22252 139.40740 21264 ft 320 kts 104°
2026-05-05 06:40 -35.22790 139.43379 21261 ft 320 kts 104°
2026-05-05 06:40 -35.23328 139.46022 21260 ft 320 kts 104°
2026-05-05 06:40 -35.23866 139.48667 21261 ft 320 kts 104°
2026-05-05 06:40 -35.24445 139.51300 21261 ft 320 kts 110°
2026-05-05 06:41 -35.25332 139.53798 21257 ft 320 kts 116°
2026-05-05 06:41 -35.26299 139.56243 21257 ft 319 kts 116°
2026-05-05 06:41 -35.27234 139.58711 21259 ft 320 kts 115°
2026-05-05 06:41 -35.28138 139.61193 21259 ft 320 kts 114°
2026-05-05 06:42 -35.29054 139.63673 21257 ft 319 kts 115°
2026-05-05 06:42 -35.29980 139.66144 21265 ft 319 kts 115°
2026-05-05 06:42 -35.30901 139.68616 21260 ft 319 kts 115°
2026-05-05 06:42 -35.31817 139.71089 21256 ft 319 kts 115°
2026-05-05 06:43 -35.32734 139.73562 21258 ft 319 kts 115°
2026-05-05 06:43 -35.33653 139.76040 21261 ft 319 kts 115°
2026-05-05 06:43 -35.34568 139.78511 21260 ft 318 kts 115°
2026-05-05 06:43 -35.35482 139.80981 21260 ft 318 kts 115°
2026-05-05 06:44 -35.36395 139.83450 21262 ft 318 kts 115°
2026-05-05 06:44 -35.37308 139.85920 21262 ft 318 kts 115°
2026-05-05 06:44 -35.38219 139.88388 21257 ft 318 kts 115°
2026-05-05 06:44 -35.39118 139.90823 21258 ft 318 kts 115°
2026-05-05 06:45 -35.40028 139.93293 21258 ft 318 kts 114°
2026-05-05 06:45 -35.40938 139.95761 21257 ft 317 kts 114°
2026-05-05 06:45 -35.41846 139.98227 21257 ft 317 kts 114°
2026-05-05 06:45 -35.42754 140.00697 21261 ft 317 kts 114°
2026-05-05 06:46 -35.43660 140.03162 21259 ft 317 kts 114°
2026-05-05 06:46 -35.44564 140.05624 21262 ft 317 kts 114°
2026-05-05 06:46 -35.45468 140.08089 21259 ft 316 kts 114°
2026-05-05 06:46 -35.46371 140.10550 21259 ft 316 kts 114°
2026-05-05 06:47 -35.47273 140.13011 21261 ft 316 kts 114°
2026-05-05 06:47 -35.47870 140.14642 21260 ft 316 kts 114°
2026-05-05 06:47 -35.48770 140.17101 21260 ft 316 kts 114°
2026-05-05 06:47 -35.49972 140.20389 21259 ft 316 kts 114°
2026-05-05 06:48 -35.50861 140.22823 21259 ft 315 kts 114°
2026-05-05 06:48 -35.51467 140.24485 21259 ft 315 kts 114°
2026-05-05 06:48 -35.52363 140.26940 21259 ft 315 kts 114°
2026-05-05 06:48 -35.53257 140.29394 21258 ft 315 kts 114°
2026-05-05 06:49 -35.54152 140.31851 21259 ft 315 kts 114°
2026-05-05 06:49 -35.55044 140.34303 21258 ft 314 kts 114°
2026-05-05 06:49 -35.55936 140.36754 21259 ft 314 kts 114°
2026-05-05 06:49 -35.56827 140.39206 21259 ft 314 kts 114°
2026-05-05 06:50 -35.57717 140.41660 21258 ft 314 kts 114°
2026-05-05 06:50 -35.58597 140.44082 21258 ft 314 kts 114°
2026-05-05 06:50 -35.59484 140.46532 21258 ft 314 kts 114°
2026-05-05 06:50 -35.60374 140.48987 21257 ft 314 kts 114°
2026-05-05 06:51 -35.61260 140.51437 21259 ft 314 kts 114°
2026-05-05 06:51 -35.62147 140.53886 21259 ft 314 kts 114°
2026-05-05 06:51 -35.63036 140.56348 21258 ft 314 kts 114°
2026-05-05 06:51 -35.63922 140.58800 21258 ft 314 kts 114°
2026-05-05 06:52 -35.64805 140.61250 21258 ft 314 kts 114°
2026-05-05 06:52 -35.65689 140.63700 21260 ft 314 kts 114°
2026-05-05 06:52 -35.66572 140.66153 21256 ft 314 kts 114°
2026-05-05 06:52 -35.67456 140.68606 21258 ft 314 kts 114°
2026-05-05 06:53 -35.68328 140.71031 21257 ft 314 kts 114°
2026-05-05 06:53 -35.69210 140.73486 21257 ft 314 kts 114°
2026-05-05 06:53 -35.70092 140.75941 21260 ft 313 kts 114°
2026-05-05 06:53 -35.70972 140.78395 21258 ft 313 kts 114°
2026-05-05 06:54 -35.71851 140.80846 21257 ft 313 kts 114°
2026-05-05 06:54 -35.72731 140.83304 21260 ft 313 kts 114°
2026-05-05 06:54 -35.73610 140.85757 21255 ft 313 kts 114°
2026-05-05 06:54 -35.74489 140.88213 21257 ft 313 kts 114°
2026-05-05 06:55 -35.75366 140.90667 21258 ft 313 kts 114°
2026-05-05 06:55 -35.76246 140.93134 21259 ft 314 kts 114°
2026-05-05 06:55 -35.77124 140.95593 21257 ft 314 kts 114°
2026-05-05 06:55 -35.78001 140.98053 21257 ft 314 kts 114°
2026-05-05 06:56 -35.78880 141.00518 21256 ft 314 kts 114°
2026-05-05 06:56 -35.79755 141.02977 21258 ft 314 kts 114°
2026-05-05 06:56 -35.80622 141.05412 21258 ft 314 kts 114°
2026-05-05 06:56 -35.81495 141.07871 21255 ft 314 kts 114°
2026-05-05 06:57 -35.82370 141.10334 21258 ft 314 kts 114°
2026-05-05 06:57 -35.83243 141.12794 21258 ft 314 kts 114°
2026-05-05 06:57 -35.84116 141.15257 21256 ft 314 kts 114°
2026-05-05 06:57 -35.84989 141.17720 21258 ft 314 kts 114°
2026-05-05 06:58 -35.85862 141.20185 21258 ft 314 kts 114°
2026-05-05 06:58 -35.86735 141.22651 21258 ft 314 kts 114°
2026-05-05 06:58 -35.87608 141.25122 21257 ft 314 kts 114°
2026-05-05 06:58 -35.88478 141.27586 21258 ft 314 kts 114°
2026-05-05 06:59 -35.89350 141.30056 21258 ft 314 kts 114°
2026-05-05 06:59 -35.90220 141.32525 21259 ft 314 kts 114°
2026-05-05 06:59 -35.91092 141.34998 21258 ft 314 kts 114°
2026-05-05 06:59 -35.91960 141.37466 21258 ft 314 kts 114°
2026-05-05 07:00 -35.92832 141.39942 21257 ft 314 kts 114°
2026-05-05 07:00 -35.93702 141.42416 21256 ft 314 kts 114°
2026-05-05 07:00 -35.94571 141.44891 21255 ft 314 kts 114°
2026-05-05 07:00 -35.95439 141.47365 21254 ft 314 kts 114°
2026-05-05 07:01 -35.96307 141.49839 21259 ft 314 kts 114°
2026-05-05 07:01 -35.97175 141.52317 21255 ft 314 kts 114°
2026-05-05 07:01 -35.98041 141.54792 21256 ft 314 kts 114°
2026-05-05 07:01 -35.98909 141.57269 21258 ft 314 kts 115°
2026-05-05 07:02 -35.99774 141.59749 21250 ft 314 kts 115°
2026-05-05 07:02 -36.00639 141.62229 21252 ft 314 kts 115°
2026-05-05 07:02 -36.01505 141.64708 21251 ft 315 kts 115°
2026-05-05 07:02 -36.02363 141.67163 21252 ft 315 kts 115°
2026-05-05 07:03 -36.03229 141.69648 21257 ft 315 kts 114°
2026-05-05 07:03 -36.04093 141.72135 21257 ft 315 kts 114°
2026-05-05 07:03 -36.04957 141.74620 21259 ft 315 kts 115°
2026-05-05 07:03 -36.05823 141.77110 21256 ft 315 kts 114°
2026-05-05 07:04 -36.06688 141.79601 21254 ft 315 kts 115°
2026-05-05 07:04 -36.07553 141.82090 21256 ft 315 kts 115°
2026-05-05 07:04 -36.08414 141.84585 21256 ft 315 kts 115°
2026-05-05 07:04 -36.09281 141.87082 21257 ft 315 kts 115°
2026-05-05 07:05 -36.10144 141.89570 21252 ft 316 kts 115°
2026-05-05 07:05 -36.11008 141.92070 21256 ft 316 kts 114°
2026-05-05 07:05 -36.11872 141.94573 21255 ft 316 kts 114°
2026-05-05 07:05 -36.12724 141.97039 21258 ft 316 kts 114°
2026-05-05 07:06 -36.13597 141.99570 21256 ft 316 kts 115°
2026-05-05 07:06 -36.14458 142.02068 21254 ft 316 kts 114°
2026-05-05 07:06 -36.15320 142.04567 21253 ft 316 kts 114°
2026-05-05 07:06 -36.16170 142.07036 21257 ft 316 kts 114°
2026-05-05 07:07 -36.17029 142.09539 21259 ft 316 kts 114°
2026-05-05 07:07 -36.17890 142.12047 21258 ft 316 kts 114°
2026-05-05 07:07 -36.18749 142.14547 21257 ft 316 kts 114°
2026-05-05 07:07 -36.19608 142.17050 21256 ft 316 kts 114°
2026-05-05 07:08 -36.20467 142.19554 21252 ft 316 kts 114°
2026-05-05 07:08 -36.21323 142.22057 21253 ft 316 kts 114°
2026-05-05 07:08 -36.22179 142.24562 21253 ft 316 kts 114°
2026-05-05 07:08 -36.23037 142.27067 21254 ft 316 kts 114°
2026-05-05 07:09 -36.23894 142.29577 21256 ft 316 kts 114°
2026-05-05 07:09 -36.24749 142.32085 21255 ft 316 kts 114°
2026-05-05 07:09 -36.25605 142.34593 21256 ft 316 kts 114°
2026-05-05 07:09 -36.26459 142.37100 21255 ft 316 kts 114°
2026-05-05 07:10 -36.27312 142.39607 21252 ft 316 kts 114°
2026-05-05 07:10 -36.28155 142.42082 21254 ft 316 kts 114°
2026-05-05 07:10 -36.29010 142.44598 21253 ft 316 kts 114°
2026-05-05 07:10 -36.29861 142.47105 21254 ft 316 kts 114°
2026-05-05 07:11 -36.30715 142.49620 21248 ft 316 kts 114°
2026-05-05 07:11 -36.31567 142.52134 21248 ft 316 kts 114°
2026-05-05 07:11 -36.32417 142.54646 21249 ft 316 kts 114°
2026-05-05 07:11 -36.33270 142.57163 21249 ft 316 kts 114°
2026-05-05 07:12 -36.34121 142.59681 21248 ft 316 kts 114°
2026-05-05 07:12 -36.34972 142.62196 21251 ft 316 kts 114°
2026-05-05 07:12 -36.35820 142.64713 21250 ft 316 kts 114°
2026-05-05 07:12 -36.36670 142.67229 21251 ft 316 kts 114°
2026-05-05 07:13 -36.37519 142.69750 21250 ft 316 kts 114°
2026-05-05 07:13 -36.38367 142.72266 21247 ft 316 kts 114°
2026-05-05 07:13 -36.39215 142.74788 21248 ft 316 kts 114°
2026-05-05 07:13 -36.40062 142.77308 21248 ft 316 kts 114°
2026-05-05 07:14 -36.40908 142.79826 21247 ft 316 kts 114°
2026-05-05 07:14 -36.41754 142.82345 21251 ft 316 kts 114°
2026-05-05 07:14 -36.42602 142.84874 21247 ft 316 kts 114°
2026-05-05 07:14 -36.43446 142.87395 21247 ft 316 kts 114°
2026-05-05 07:15 -36.44289 142.89913 21251 ft 316 kts 114°
2026-05-05 07:15 -36.45132 142.92438 21249 ft 316 kts 114°
2026-05-05 07:15 -36.45974 142.94960 21249 ft 316 kts 114°
2026-05-05 07:15 -36.46816 142.97488 21247 ft 316 kts 114°
2026-05-05 07:16 -36.47659 143.00015 21244 ft 316 kts 114°
2026-05-05 07:16 -36.48499 143.02541 21245 ft 316 kts 114°
2026-05-05 07:16 -36.49340 143.05067 21246 ft 317 kts 114°
2026-05-05 07:16 -36.50181 143.07597 21246 ft 317 kts 114°
2026-05-05 07:17 -36.51011 143.10098 21247 ft 317 kts 114°
2026-05-05 07:17 -36.51852 143.12633 21247 ft 317 kts 114°
2026-05-05 07:17 -36.52691 143.15163 21251 ft 317 kts 114°
2026-05-05 07:17 -36.53530 143.17698 21187 ft 319 kts 114°
2026-05-05 07:18 -36.54381 143.20262 20995 ft 324 kts 114°
2026-05-05 07:18 -36.55245 143.22872 20750 ft 329 kts 114°
2026-05-05 07:18 -36.56116 143.25510 20611 ft 329 kts 114°
2026-05-05 07:18 -36.56983 143.28145 20483 ft 329 kts 114°
2026-05-05 07:19 -36.57852 143.30778 20363 ft 329 kts 114°
2026-05-05 07:19 -36.58720 143.33409 20242 ft 329 kts 114°
2026-05-05 07:19 -36.59586 143.36041 20122 ft 328 kts 114°
2026-05-05 07:19 -36.60451 143.38671 20001 ft 328 kts 114°
2026-05-05 07:20 -36.61315 143.41302 19883 ft 328 kts 114°
2026-05-05 07:20 -36.62177 143.43927 19766 ft 328 kts 114°
2026-05-05 07:20 -36.63040 143.46558 19645 ft 328 kts 114°
2026-05-05 07:20 -36.63902 143.49186 19523 ft 328 kts 114°
2026-05-05 07:21 -36.64767 143.51825 19336 ft 330 kts 114°
2026-05-05 07:21 -36.65634 143.54475 19149 ft 331 kts 114°
2026-05-05 07:21 -36.66503 143.57135 18964 ft 332 kts 114°
2026-05-05 07:21 -36.67372 143.59801 18781 ft 332 kts 114°
2026-05-05 07:22 -36.68233 143.62438 18598 ft 332 kts 114°
2026-05-05 07:22 -36.69107 143.65127 18394 ft 330 kts 114°
2026-05-05 07:22 -36.69972 143.67771 18178 ft 328 kts 114°
2026-05-05 07:22 -36.70818 143.70368 17968 ft 327 kts 114°
2026-05-05 07:23 -36.71670 143.72996 17750 ft 327 kts 114°
2026-05-05 07:23 -36.72524 143.75625 17550 ft 326 kts 114°
2026-05-05 07:23 -36.73374 143.78244 17344 ft 326 kts 114°
2026-05-05 07:23 -36.74224 143.80864 17135 ft 326 kts 114°
2026-05-05 07:24 -36.75072 143.83482 16932 ft 325 kts 114°
2026-05-05 07:24 -36.75917 143.86096 16728 ft 325 kts 114°
2026-05-05 07:24 -36.76766 143.88720 16525 ft 325 kts 114°
2026-05-05 07:24 -36.77614 143.91345 16328 ft 325 kts 114°
2026-05-05 07:25 -36.78447 143.93930 16128 ft 325 kts 114°
2026-05-05 07:25 -36.79293 143.96546 15933 ft 325 kts 114°
2026-05-05 07:25 -36.80135 143.99164 15734 ft 325 kts 114°
2026-05-05 07:25 -36.80978 144.01783 15540 ft 325 kts 114°
2026-05-05 07:26 -36.81817 144.04390 15346 ft 322 kts 114°
2026-05-05 07:26 -36.82641 144.06988 15153 ft 320 kts 114°
2026-05-05 07:26 -36.83467 144.09562 14956 ft 318 kts 115°
2026-05-05 07:26 -36.84296 144.12126 14770 ft 318 kts 114°
2026-05-05 07:27 -36.85114 144.14679 14582 ft 317 kts 114°
2026-05-05 07:27 -36.85934 144.17220 14391 ft 314 kts 115°
2026-05-05 07:27 -36.86743 144.19748 14203 ft 313 kts 114°
2026-05-05 07:27 -36.87541 144.22265 14017 ft 311 kts 114°
2026-05-05 07:28 -36.88333 144.24744 13809 ft 311 kts 115°
2026-05-05 07:28 -36.89135 144.27248 13588 ft 310 kts 115°
2026-05-05 07:28 -36.89930 144.29747 13384 ft 309 kts 115°
2026-05-05 07:28 -36.90722 144.32233 13236 ft 306 kts 115°
2026-05-05 07:29 -36.91500 144.34682 13233 ft 300 kts 115°
2026-05-05 07:29 -36.92263 144.37088 13233 ft 296 kts 115°
2026-05-05 07:29 -36.93196 144.39343 13236 ft 289 kts 130°
2026-05-05 07:29 -36.94514 144.41210 13238 ft 285 kts 136°
2026-05-05 07:30 -36.95857 144.43030 13236 ft 285 kts 135°
2026-05-05 07:30 -36.98449 144.46771 13231 ft 284 kts 134°
2026-05-05 07:30 -36.99752 144.48629 13232 ft 284 kts 135°
2026-05-05 07:31 -37.01063 144.50497 13115 ft 287 kts 135°
2026-05-05 07:31 -37.02384 144.52393 12948 ft 291 kts 134°
2026-05-05 07:31 -37.03271 144.53664 12814 ft 293 kts 134°
2026-05-05 07:31 -37.04616 144.55588 12609 ft 293 kts 134°
2026-05-05 07:32 -37.05925 144.57470 12410 ft 283 kts 134°
2026-05-05 07:32 -37.07214 144.59325 12200 ft 284 kts 135°
2026-05-05 07:32 -37.08524 144.61197 12002 ft 287 kts 134°
2026-05-05 07:32 -37.09839 144.63085 11796 ft 288 kts 134°
2026-05-05 07:33 -37.11161 144.64988 11610 ft 289 kts 134°
2026-05-05 07:33 -37.12481 144.66888 11411 ft 290 kts 134°
2026-05-05 07:33 -37.13806 144.68794 11227 ft 289 kts 134°
2026-05-05 07:33 -37.15128 144.70698 10999 ft 287 kts 134°
2026-05-05 07:34 -37.16469 144.72461 10737 ft 271 kts 145°
2026-05-05 07:34 -37.18063 144.73503 10481 ft 251 kts 167°
2026-05-05 07:34 -37.19730 144.73946 10216 ft 241 kts 172°
2026-05-05 07:34 -37.21356 144.74362 9933 ft 236 kts 171°
2026-05-05 07:35 -37.22924 144.74784 9645 ft 232 kts 171°
2026-05-05 07:35 -37.24494 144.75203 9349 ft 229 kts 171°
2026-05-05 07:35 -37.26047 144.75614 9063 ft 228 kts 171°
2026-05-05 07:35 -37.27592 144.76025 8776 ft 226 kts 171°
2026-05-05 07:36 -37.29130 144.76435 8495 ft 226 kts 171°
2026-05-05 07:36 -37.30666 144.76844 8215 ft 225 kts 171°
2026-05-05 07:36 -37.32196 144.77252 7939 ft 225 kts 171°
2026-05-05 07:36 -37.33728 144.77615 7664 ft 223 kts 176°
2026-05-05 07:37 -37.35268 144.77859 7373 ft 224 kts 174°
2026-05-05 07:37 -37.36805 144.78153 7037 ft 223 kts 174°
2026-05-05 07:37 -37.38325 144.78431 6650 ft 223 kts 174°
2026-05-05 07:37 -37.39861 144.78700 6240 ft 223 kts 174°
2026-05-05 07:38 -37.41390 144.78965 5836 ft 218 kts 174°
2026-05-05 07:38 -37.42857 144.79224 5440 ft 208 kts 174°
2026-05-05 07:38 -37.44271 144.79475 5047 ft 202 kts 174°
2026-05-05 07:38 -37.45651 144.79719 4633 ft 198 kts 174°
2026-05-05 07:39 -37.46990 144.79956 4233 ft 196 kts 174°
2026-05-05 07:39 -37.48283 144.80183 3822 ft 176 kts 174°
2026-05-05 07:39 -37.49442 144.80406 3405 ft 163 kts 170°
2026-05-05 07:39 -37.50536 144.80704 2979 ft 156 kts 173°
2026-05-05 07:40 -37.51564 144.80911 2763 ft 145 kts 173°
2026-05-05 07:40 -37.52576 144.81102 2537 ft 148 kts 174°
2026-05-05 07:40 -37.53580 144.81305 2387 ft 144 kts 173°
2026-05-05 07:40 -37.54551 144.81495 2326 ft 138 kts 173°
2026-05-05 07:41 -37.55532 144.81711 2281 ft 147 kts 174°
2026-05-05 07:41 -37.56568 144.81900 2189 ft 152 kts 173°
2026-05-05 07:41 -37.57581 144.82080 2140 ft 141 kts 174°
2026-05-05 07:41 -37.58535 144.82262 1972 ft 137 kts 174°
2026-05-05 07:42 -37.59471 144.82446 1713 ft 136 kts 174°
2026-05-05 07:42 -37.60392 144.82607 1537 ft 133 kts 174°
2026-05-05 07:42 -37.61308 144.82762 1406 ft 134 kts 175°
2026-05-05 07:42 -37.62233 144.82922 1175 ft 137 kts 173°
2026-05-05 07:43 -37.63166 144.83114 961 ft 135 kts 174°
2026-05-05 07:43 -37.64104 144.83287 735 ft 136 kts 174°
2026-05-05 07:43 -37.65043 144.83447 554 ft 136 kts 173°
2026-05-05 07:43 -37.65951 144.83615 425 ft 120 kts 174°
2026-05-05 07:44 -37.66674 144.83739 395 ft 88 kts 177°
2026-05-05 07:44 -37.67234 144.83847 374 ft 54 kts 171°
2026-05-05 07:44 -37.67603 144.83914 360 ft 51 kts 170°
2026-05-05 07:44 -37.67854 144.83987 352 ft 24 kts 134°
2026-05-05 07:45 -37.67875 144.84100 354 ft 7 kts 81°
2026-05-05 07:45 -37.67875 144.84102 354 ft 0 kts 82°
2026-05-05 07:46 -37.67874 144.84104 354 ft 2 kts 81°
2026-05-05 07:46 -37.67868 144.84158 355 ft 10 kts 82°
2026-05-05 07:46 -37.67856 144.84269 362 ft 14 kts 87°
2026-05-05 07:47 -37.67900 144.84384 360 ft 16 kts 141°
2026-05-05 07:47 -37.68015 144.84421 353 ft 18 kts 172°
2026-05-05 07:47 -37.68144 144.84444 350 ft 20 kts 171°
2026-05-05 07:47 -37.68282 144.84471 345 ft 20 kts 172°
2026-05-05 07:48 -37.68387 144.84556 341 ft 20 kts 107°
2026-05-05 07:48 -37.68398 144.84729 341 ft 20 kts 95°
2026-05-05 07:48 -37.68415 144.84885 340 ft 11 kts 128°
2026-05-05 07:48 -37.68498 144.84904 334 ft 15 kts 186°
2026-05-05 07:49 -37.68604 144.84865 332 ft 8 kts 250°
2026-05-05 07:49 -37.68570 144.84819 330 ft 8 kts 313°
2026-05-05 07:49 -37.68558 144.84810 332 ft 0 kts 344°